Location: Bouillancy
(49.1149°N, 2.9308°E)
Time: 20:10:58
(UTC+00:00)

Daily predictions for brighter satellites

Satellite Brightness Start Highest point End
(mag) Time Altitude Azimuth Time Altitude Azimuth Time Altitude Azimuth
Cosmos 1092 Rocket 4.4 17:51:13 10° N 17:57:01 40° ENE 18:02:49 10° SE
BREEZE-M DEB (TANK) 3.1 17:56:23 10° W 17:58:54 46° SSW 18:04:46 10° SE
Cosmos 1464 Rocket 4.0 17:53:38 10° S 17:59:45 74° E 18:06:00 10° NNE
PSLV R/B 4.0 17:55:48 10° NNE 18:00:02 68° ESE 18:04:13 10° S
COSMO-SKYMED 1 2.5 17:57:23 10° NNE 18:01:46 74° ESE 18:06:06 10° S
Cosmos 2263 Rocket 4.3 17:57:50 10° W 18:02:26 25° NW 18:07:05 10° NNE
COSMOS 2455 4.2 17:59:20 10° SE 18:02:51 16° ESE 18:06:20 10° ENE
ERS-2 4.4 17:59:52 10° N 18:03:04 29° WNW 18:06:15 10° SW
Cosmos 1844 Rocket 2.9 17:57:55 10° SSW 18:03:29 79° WNW 18:09:09 10° NNE
Okean-O 2.6 17:59:38 10° SSE 18:04:03 76° ENE 18:08:30 10° N
Cosmos 2151 Rocket 3.6 18:01:10 10° S 18:05:39 70° E 18:10:09 10° NNE
Cosmos 1689 Rocket 2.3 18:02:44 10° N 18:05:42 74° WNW 18:08:38 10° SSW
CZ-2C R/B 3.4 18:00:31 10° SE 18:05:56 54° ENE 18:11:33 10° N
H-2A R/B 2.5 18:03:02 10° SE 18:07:47 41° ENE 18:12:43 10° N
KORONAS-FOTON 3.8 18:09:21 10° N 18:13:16 66° ENE 18:17:09 10° SSE
Cosmos 2285 Rocket 4.0 18:08:20 10° SSW 18:14:37 72° ESE 18:20:59 10° NNE
Cosmos 1025 Rocket 3.7 18:11:41 10° NNW 18:16:03 60° W 18:20:22 10° S
Cosmos 1300 Rocket 4.0 18:12:40 10° SSW 18:17:05 68° WNW 18:21:32 10° N
ISS -3.5 18:14:58 10° WNW 18:18:20 59° N 18:21:09 14° E
Cosmos 1805 3.4 18:17:15 10° S 18:21:02 50° E 18:24:51 10° NNE
TSX-5 4.1 18:17:25 10° SSW 18:21:31 73° ESE 18:26:54 10° NE
Cosmos 2278 Rocket 2.7 18:18:35 10° S 18:23:39 35° ESE 18:28:44 10° NE
Cosmos 1125 Rocket 4.0 18:24:38 10° SSW 18:29:56 66° WNW 18:35:15 10° NNE
Cosmos 1833 Rocket 2.7 18:24:34 10° NNW 18:30:12 64° ENE 18:35:49 10° SE
Cosmos 1844 4.2 18:25:01 10° SW 18:30:38 63° WNW 18:36:14 10° NNE
Nadezhda 4 Rocket 4.1 18:25:03 10° N 18:31:12 80° W 18:37:20 10° S
CSL-04 Rocket 3.7 18:26:02 10° SSE 18:31:30 74° ENE 18:37:04 10° NNW
HJ-1C 3.4 18:28:16 10° SSE 18:31:31 56° ENE 18:34:48 10° N
Cosmos 2251 Rocket 4.2 18:26:41 10° N 18:31:38 36° NE 18:35:38 14° ESE
Okean 1 Rocket 3.1 18:27:45 10° S 18:32:11 62° E 18:36:38 10° NNE
COSMOS 2406 3.2 18:30:54 10° NNW 18:36:37 89° ENE 18:42:19 10° SSE
Cosmos 1340 Rocket 3.2 18:33:28 10° SSE 18:37:12 40° E 18:41:00 10° NNE
CSL-04 Debris 4.1 18:31:54 10° SSE 18:37:17 85° ENE 18:42:44 10° NNW
YAOGAN 1 3.1 18:37:46 10° S 18:42:02 62° WSW 18:46:22 10° NNW
Lacrosse 4 Rocket 1.4 18:38:09 10° NNW 18:42:13 62° NE 18:45:15 17° SE
Cosmos 1674 3.5 18:39:47 10° NNW 18:43:32 53° W 18:47:15 10° S
Lacrosse 5 rocket 1.8 18:39:50 10° NW 18:44:10 57° NNE 18:46:58 22° E
CZ-4C R/B 2.7 18:44:26 10° S 18:48:45 31° ESE 18:53:45 10° NE
Cosmos 1758 4.4 18:50:55 24° E 18:50:55 24° E 18:54:03 10° NE
Exosat Rocket 3.8 18:46:01 10° SSW 18:51:07 72° WNW 18:56:19 10° NNE
Shenzhou-11 Module 3.9 18:54:11 10° SSW 18:54:23 10° SSW 18:54:23 10° SSW
CZ-4 R/B 3.0 18:51:20 10° SSW 18:55:12 37° W 18:59:02 10° NNW
Cosmos 1892 Rocket 3.5 18:53:39 10° N 18:57:58 59° ENE 19:01:33 15° SSE
ARGOS 3.1 18:53:52 10° SSE 18:59:14 83° ENE 19:04:40 10° NNW
FREGAT/IRIS 4.3 19:01:26 18° NNE 19:01:26 18° NNE 19:02:26 10° N
Meteor 1-24 Rocket 3.8 18:54:57 10° NNW 19:00:39 90° E 19:06:33 10° S
CZ-2C R/B 3.1 18:56:28 10° NNE 19:01:45 40° E 19:07:00 10° SSE
MOS 1 Rocket 2.9 18:57:28 10° NNE 19:01:48 77° ESE 19:06:05 10° S
APEX 3.5 18:59:54 10° S 19:02:59 37° ESE 19:03:27 35° E
Cosmos 1626 2.3 19:00:07 10° NNW 19:03:49 73° W 19:07:29 10° S
USA 186 1.8 19:04:01 40° SE 19:04:54 55° ENE 19:08:07 10° N
Cosmos 1544 Rocket 4.4 19:05:34 29° ENE 19:05:34 29° ENE 19:08:54 10° NNE
MOS 1 4.4 19:03:08 18° SE 19:07:17 56° ENE 19:12:51 10° N
Meteor 1-22 Rocket 4.3 19:01:31 10° S 19:07:32 81° E 19:13:41 10° NNE
Aureole 2 Rocket 2.9 19:05:36 10° SW 19:08:51 57° WNW 19:12:02 10° NNE
Cosmos 1470 2.9 19:08:02 27° SSE 19:09:43 45° E 19:13:25 10° NNE
SL-14 R/B 3.5 19:05:54 10° NNW 19:09:54 74° W 19:13:54 10° S
Ariane Rocket 3.0 19:06:14 19° SSE 19:09:54 63° ENE 19:14:57 10° N
Resurs 01 Rocket 3.0 19:10:01 22° ENE 19:10:01 22° ENE 19:13:21 10° NNE
Cosmos 1766 4.0 19:08:15 10° SSW 19:12:07 54° WNW 19:16:03 10° N
NOSS 3-4 (A) 3.9 19:09:13 10° WSW 19:15:07 62° NW 19:21:32 10° NE
NOSS 3-4 (C) 3.9 19:09:18 10° WSW 19:15:13 63° NW 19:21:38 10° NE
SL-8 R/B 4.2 19:11:44 10° SW 19:16:13 39° SSE 19:17:03 36° SE
Cosmos 1733 4.1 19:13:53 10° SSW 19:17:36 51° WNW 19:21:21 10° N
Cosmos 2098 Rocket 3.9 19:11:42 10° N 19:17:38 47° ENE 19:19:21 35° ESE
MetOp-A 4.1 19:16:54 25° SE 19:20:01 64° ENE 19:25:19 10° N
Cosmos 407 Rocket 4.2 19:18:04 10° N 19:22:43 33° NE 19:23:25 31° ENE
Resurs 1-3 4.0 19:23:00 40° ENE 19:23:13 40° ENE 19:27:20 10° N
ARIANE 5 R/B 4.4 19:24:52 17° NE 19:24:52 17° NE 19:26:47 10° NNE
RESURS DK-1 2.2 19:19:50 10° SSW 19:23:59 85° ESE 19:28:10 10° NNE
ATLAS 3B R/B 3.3 19:19:03 10° NW 19:25:44 56° WSW 19:31:52 14° SSE
SL-08 RB Rocket 3.8 19:23:00 16° S 19:26:39 76° WSW 19:31:11 10° NNW
Cosmos 1634 Rocket 4.1 19:20:35 10° SSW 19:26:46 78° W 19:33:03 10° N
deb Kosmos-1763 4.1 19:24:26 10° NNW 19:27:49 59° NE 19:27:49 59° NE
USA 290 4.0 19:28:32 10° N 19:30:11 23° NNE 19:30:11 23° NNE
Cosmos 1602 Rocket 4.3 19:31:03 10° N 19:34:33 37° NE 19:34:33 37° NE
Cosmos 1461 3.1 19:31:06 10° NW 19:35:54 71° NE 19:36:42 57° ESE
Cosmos 2082 Rocket 2.3 19:30:50 10° NNW 19:36:28 74° WSW 19:39:28 29° SSE
ATLAS 2AS CENTAUR R/B 3.5 19:29:55 10° WSW 19:37:48 61° NW 19:45:32 10° NE
Meteor 2-10 4.1 19:35:05 28° SSE 19:37:51 57° E 19:43:01 10° NNE
Cosmos 1626 Rocket 3.6 19:39:52 10° N 19:44:08 62° ENE 19:44:08 62° ENE
H-2A R/B 3.8 19:42:50 10° SSW 19:47:20 31° W 19:51:59 10° NNW
COSMOS 2455 2.7 19:41:49 10° SSW 19:47:51 81° ESE 19:53:56 10° NE
Cosmos 1455 Rocket 3.2 19:43:57 10° SSW 19:48:19 72° WNW 19:52:40 10° N
Cosmos 2084 4.0 19:46:16 10° NW 19:50:28 49° NNE 19:50:28 49° NNE
SJ-6B 3.2 19:50:50 51° SW 19:51:21 57° W 19:55:10 10° NNW
OBJECT-B 2.6 19:55:53 28° NNW 19:55:53 28° NNW 19:57:35 10° NNW
ISS -2.2 19:51:53 10° WNW 19:54:07 35° W 19:54:07 35° W
Cosmos 2279 Rocket 4.1 19:49:14 10° SSW 19:55:29 76° W 20:01:47 10° N
Meteor 1-21 Rocket 4.2 19:50:52 10° N 19:56:46 82° ENE 19:58:18 52° SSE
DMSP B5D2-2 4.0 19:53:42 10° NNE 19:59:01 86° WNW 20:04:17 10° SSW
Cosmos 1655 Rocket 4.0 19:55:01 10° N 20:01:20 84° W 20:04:13 35° S
ATLAS CENTAUR R/B 3.4 20:04:02 10° NNW 20:05:28 17° N 20:05:28 17° N
Cosmos 2278 Rocket 3.2 20:02:11 10° SW 20:07:37 45° NW 20:13:04 10° NNE
Cosmos 909 Rocket 4.5 20:02:31 10° NW 20:08:47 56° WSW 20:10:59 38° S
Gbstr 26 Del rocket 4.2 20:03:13 10° WSW 20:10:15 85° SSE 20:13:01 45° ENE
Cosmos 1190 Rocket 4.2 20:09:33 10° NNW 20:14:05 58° NNE 20:14:05 58° NNE
Lacrosse 4 Rocket 3.8 20:17:50 10° WNW 20:20:27 17° WSW 20:21:36 15° SW
Lacrosse 5 rocket 2.8 20:19:09 10° WNW 20:22:36 35° WSW 20:22:36 35° WSW
MetOp-B 4.5 20:35:17 60° N 20:35:17 60° N 20:39:40 10° NNW
CZ-4C R/B 2.7 20:31:45 10° WSW 20:36:50 57° NW 20:43:01 10° NE
SPOT 3 Rocket 4.1 20:38:02 51° WSW 20:38:04 51° W 20:43:07 10° NNW
Cosmos 2266 Rocket 4.4 20:33:51 10° NNW 20:39:45 57° W 20:40:53 49° SW
CZ-2C R/B 4.1 20:36:53 10° N 20:42:00 37° WNW 20:47:07 10° SW
Terra 4.0 20:45:21 17° NNE 20:45:21 17° NNE 20:46:42 10° N
Cosmos 1140 Rocket 4.1 20:37:50 10° NNW 20:41:42 51° NW 20:41:42 51° NW
Resurs 01 Rocket 3.1 20:47:36 34° NW 20:47:36 34° NW 20:50:27 10° NNW
USA 229 DEB 4.2 20:55:24 10° NW 21:02:11 54° NNE 21:02:11 54° NNE
USA 229 4.2 20:55:30 10° NW 21:02:17 54° NNE 21:02:17 54° NNE
NOSS 3-1 (A) 4.3 21:07:50 10° NW 21:14:31 54° NNE 21:14:31 54° NNE
Cosmos 2297 Rocket 4.4 21:23:25 10° N 21:25:58 17° NNE 21:25:58 17° NNE
NOSS 3-1 (C) 4.4 21:41:49 10° NW 21:47:29 59° NW 21:47:29 59° NW
CZ-4C R/B 4.3 22:22:03 10° WNW 22:26:46 25° NNW 22:32:15 10° NE
ATLAS 2AS CENTAUR R/B 4.5 23:17:07 10° NW 23:23:45 29° NNE 23:25:53 25° NE
